sat.trackr.live / text

‹ back to catalog

STARLINK-37887

NORAD 69832 · 2026-154P

PAYLOAD ACTIVE UNKNOWN

§ Identity

Operator
Country
US
Launch date
2026-07-05
Launch site
AFETR
Launch vehicle
Mass (kg)
RCS (m²)

Purposes: comms

External: N2YO · Heavens-Above · Gunter

§ Orbital elements

Epoch: 2026-09-20T04:59:40.475040Z

Period
93.85 min
Inclination
53.1607°
Eccentricity
0.0000690
Mean motion
15.34397790 rev/d
Perigee alt
462.2 km
Apogee alt
463.2 km
Semi-major
6,840.8 km
B*
4.0557e-4
RAAN
333.0663°
Arg perigee
68.5562°
Mean anomaly
291.5514°
Rev number
1,319

§ Raw data

STARLINK-378871 69832U 26154P   26263.20810735  .00013350  00000+0  40557-3 0  99962 69832  53.1607 333.0663 0000690  68.5562 291.5514 15.34397790 13192

JSON: /api/v1/satellites/69832 · /tle

For live sub-satellite position, see the globe view (requires WebGL).

§ Visibility from observer

Set your observer location to see the next 7 days of passes ≥ 10°. The values pass through the URL so the page stays shareable.

No JS? Fill the form by hand. The geolocation button needs JavaScript.